Location: Arthez
(43.0833°N, 0.2500°W)
Time: 06:06:29
(UTC+00:00)

Cosmos 304 Rocket - Pass Details

Date: 01 June 2022
Orbit: 679 x 686 km, 74.0° (Epoch: 03 July)

Event Time Altitude Azimuth Distance (km) Brightness Sun altitude
Exits shadow 00:03:08 85° 226° (SW) 695 3.6 -24.9°
Maximum altitude 00:03:15 88° 285° (WNW) 693 3.6 -24.9°
Drops below altitude 10° 00:08:05 10° 20° (NNE) 2,143 7.3 -24.9°
Sets 00:10:24 0° 21° (NNE) 3,063 8.3 -24.8°
